ATLAS 2 CENTAUR R/B, 23468

Orbit data source: Space-Track

ATLAS 2 CENTAUR R/B, 23468 is space debris in HEO originally from a launch on Sun, 29 Jan 1995 UTC launched from the Air Force Eastern Test Range (AFETR). Debris objects in space refer to the collection of defunct objects orbiting the Earth. Examples of debris include non-operational satellites, rocket bodies, and fragments generated from explosions, collisions, or faulty payload assembly.

Loading next visibility...
Identifier
23468, 1995-003B
Orbit
HEO
Country
Flag of USUS
Related business
Manufacturer
MM/San Diego
Mission
Spacecraft
Bus & Motor
CENTAUR, Unknown motor
Mass
2,095 kg wet, 2,095 kg dry
Launch date (UTC)
1995-01-29 (31 years ago)
Launch vehicle
Unknown
Launch site
Air Force Eastern Test Range (AFETR)
Object type
Payload
Rocket body
Debris
Shape & HBR
Cyl, 5.0 m
Radar Cross Section
27.847 m², Large (>1 m²)

Expand to show TLE details & history
Last TLE update: 9 hours ago

TLE from 9 hours ago
0 ATLAS 2 CENTAUR R/B
1 23468U 95003B   25293.60012577  .00011417  00000-0  16635-2 0  9996
2 23468  26.6617 109.7774 5729225 321.6961   8.9820  4.46685054406838
Epoch: 2025-10-20T14:24Z
TLE epoch observation values (Epoch: 2025-10-20T14:24:10.866Z)
Latitude
0.00002°
Longitude
-135.54549°
Altitude
841.992 km
Speed
9.21 km/s
True Right ascension
07h 19m 11s
True Declination
0° 00' 00"
Sunlit
Object was in daylight at epoch
Visualization orbit readout
Latitude
Unknown
Longitude
Unknown
Altitude
Unknown
Speed
Unknown
Apparent Right ascension
Unknown
Apparent Declination
Unknown
Sunlit
N/A
Visualization observer readout
Local Sidereal Time
18:01:34
Azimuth
Unknown
Elevation
Unknown
Doppler factor
Unknown
Orbital elements
Apogee altitude
18,124.254 km
Perigee altitude
274.714 km
Semi-major axis
15,577.621 km
Eccentricity
0.57292
Inclination
26.6617°
RAAN
109.7774°
Arg. of periapsis
321.6961°
True anomaly
38.19251°
Mean anomaly
8.982°
Eccentric anomaly
20.45234°
Mean motion
1.11633 °/min
Orbital period
322.49 mins
BSTAR
0.0016635
Loading maneuver chart data...
Computing Atmospheric mass density...
Loading historical data...
Loading historical data...
Loading historical data...
Loading historical data...
Loading historical data...
Loading historical data...
Loading historical data...
Other satellites on launch #3 in the year 1995 (1995-01-29 UTC)

Documentation

Showing up to 5 results
|